Location: PSU-Greenbush Astrophysical Observatory
(37.5140°N, 94.9880°W)
Time: 20:19:57
(UTC-06:00)

Altair - Pass Details

Date: 24 January 2020
Orbit: 1502 x 1682 km, 47.2° (Epoch: 19 February)

Event Time Altitude Azimuth Distance (km) Brightness Sun altitude
Rises 14:17:44 0° 299° (WNW) 4,938 10.2 28.1°
Reaches altitude 10° 14:20:57 10° 302° (WNW) 3,944 9.7 27.8°
Maximum altitude 14:31:07 74° 27° (NNE) 1,710 8.0 26.8°
Drops below altitude 10° 14:40:59 10° 113° (ESE) 3,834 9.6 25.7°
Sets 14:44:03 0° 115° (ESE) 4,794 10.0 25.4°
